Location: Austin
(30.3000°N, 97.7500°W)
Time: 23:22:12
(UTC-05:00)

Cosmos 407 Rocket - Pass Details

Date: 06 May 2026
Orbit: 740 x 781 km, 74.0° (Epoch: 13 May)

Event Time Altitude Azimuth Distance (km) Brightness Sun altitude
Rises 20:40:54 0° 353° (N) 3,176 7.2 -6.6°
Reaches altitude 10° 20:43:24 10° 1° (N) 2,251 6.3 -7.0°
Maximum altitude 20:48:09 39° 70° (ENE) 1,104 4.0 -8.0°
Drops below altitude 10° 20:52:54 10° 139° (SE) 2,252 5.4 -8.9°
Enters shadow 20:53:18 - 141° (SE) 2,395 5.5 -9.0°
